Location: Namasale
(1.5000°N, 32.6167°E)
Time: 22:14:31
(UTC+00:00)

Transit 2A - Pass Details

Date: 28 April 2021
Orbit: 602 x 957 km, 66.7° (Epoch: 11 May)

Event Time Altitude Azimuth Distance (km) Brightness Sun altitude
Rises 13:55:31 0° 320° (NW) 3,108 10.0 27.3°
Reaches altitude 10° 13:58:00 10° 310° (NW) 2,247 9.7 26.7°
Maximum altitude 14:02:31 31° 249° (WSW) 1,366 8.5 25.7°
Drops below altitude 10° 14:07:27 10° 188° (S) 2,466 8.6 24.5°
Sets 14:10:19 0° 178° (S) 3,462 9.2 23.8°
